Weather WX

World > North America > United States > Missouri

Dexter, Missouri Regional Weather

Lat: 36.79N, Lon: 89.96W
Wx Zone: MOZ110
Warning FLW WEATHER ALERT - (More Info. Click Here) Warning
Feedback

Dexter, MO Regional Weather

Expires:201906192300;;751623
ASUS43 KLSX 192207
RWRMO 

WEATHER SUMMARY FOR MISSOURI
NATIONAL WEATHER SERVICE SPRINGFIELD MO
500 PM CDT WED JUN 19 2019

NOTE: "FAIR" INDICATES FEW OR NO CLOUDS BELOW 12,000 FEET WITH NO
       SIGNIFICANT WEATHER AND/OR OBSTRUCTIONS TO VISIBILITY.
       CURRENT SKY AND/OR WEATHER CONDITIONS ARE NOT AVAILABLE FOR
       CHILLICOTHE AND FARMINGTON.


MOZ072>076-082>087-097>100-106>115-192300-
...SOUTH CENTRAL AND SOUTHEAST MISSOURI...
  
CITY           SKY/WX    TMP DP  RH WIND       PRES   REMARKS
CAPE GIRARDEAU FAIR      77  68  73 CALM      29.67S                  
FARMINGTON     PTSUNNY   79  69  71 W12       29.68S                  
POPLAR BLUFF   FAIR      85  73  67 W7        29.65S HX  91           
WEST PLAINS    MOSUNNY   81  68  64 W7        29.71F                  
                                       
$$
  

SKY/WX - Weather  TMP - Temperature  DP - Dew Point  RH - Relative Humidity
WIND - Wind Direction/Speed PRES - Barometric Pressure VSB - Visibility
WCI - Wind Chill Index E13G22 Wind - East Wind 13 mph/Gusts of 22 mph